JCSAT-17

Last updated on Wed Sep 09 2026 00:03:02 GMT+0000 (Coordinated Universal Time)

1 45245U 20013A 26251.25813903 -.00000332 00000+0 00000+0 0 9990 2 45245 5.3969 357.6329 0004250 178.8656 39.7325 1.00269729 24068
UTC large
Height (km)
Speed (km/s)
/
Latitude / Longitude
Inclination (degrees)
Orbital Period (minutes)
Azimuth
Elevation
Range (km)
Doppler Factor

Next 0 passes for location: London (51.5072 / 0.1276)

No passes found over London.
JCSAT-17